Torna al catalogo

FENGYUN 1C DEB

AttivoSSO
NORAD 31836·DEBRIS·🇨🇳 China

Lanciato May 10, 1999 da Taiyuan Satellite Launch Center

Loading…

Prossimi Passaggi (prossime 24 ore)

TLE

AggiornatoSource: Space-Track

Epoca: Sep 14, 2026, 08:22 UTC

1 31836U 99025CJA 26257.34876672  .00002658  00000-0  13926-2 0  9995
2 31836  98.6243 216.5077 0114437  52.3873 308.7621 14.11761972652909

Traccia FENGYUN 1C DEB in tempo reale con AllMySat

Download on the App Store